Theta_e
320 320 320 320 321 321 321 321 321 321 321 321 321 321 322 322 322 322 322 322 322 322 322 323 324 324 325 324 325 326 325 320 320 320 318 318 333 341 357 353 355 353 364 338 332 330 325 331 332 335 334 332 333 332 339 339 337 332 321 315 312 316 318 322 321 322 327 327 330 332 335 331 330 338 339 345 338 339 342 343 348 350 350 353 349 352 355 349
319 319 320 320 320 321 321 321 321 320 320 320 321 321 321 322 322 322 322 322 322 322 322 323 324 325 325 324 326 326 323 319 319 320 318 332 343 349 360 360 358 358 352 327 324 324 324 325 328 333 331 329 338 333 340 332 337 324 319 315 312 317 323 330 329 329 329 327 332 334 333 334 333 338 339 333 332 336 337 340 344 342 346 349 349 352 352 348
319 319 319 320 320 320 320 320 320 320 320 320 320 321 321 321 321 322 322 322 322 321 322 323 325 326 326 325 326 326 322 320 320 318 322 345 345 348 350 354 360 366 331 319 322 323 323 324 326 327 329 328 332 328 333 332 330 325 321 315 318 327 329 332 332 331 333 333 331 329 332 333 336 339 343 331 330 335 334 335 340 337 337 341 345 351 351 345
318 319 319 319 320 320 320 320 319 320 320 320 320 320 320 320 321 321 321 321 322 322 323 324 326 326 326 326 327 323 321 319 313 320 326 358 352 348 351 355 358 364 334 326 323 320 323 326 326 324 322 322 327 328 325 329 322 322 320 316 324 330 327 331 334 334 333 335 332 331 333 332 335 338 338 331 327 329 336 341 338 336 337 340 345 348 348 344
318 318 319 319 320 319 319 319 319 319 319 320 319 319 320 320 320 320 321 321 321 322 323 325 326 326 326 327 326 322 319 296 311 321 325 353 361 352 350 357 360 347 329 324 327 328 328 325 322 321 322 315 326 326 323 327 329 326 320 322 330 331 328 333 335 335 334 336 334 333 329 329 338 339 335 328 321 321 330 340 344 342 341 341 345 347 346 344
318 318 319 319 319 319 319 319 319 319 319 319 319 319 319 319 320 320 321 321 322 323 324 326 327 326 327 327 322 319 308 293 309 320 358 360 361 356 354 356 362 338 332 330 329 328 325 321 319 316 316 318 319 320 322 326 331 317 323 325 332 333 330 334 334 335 336 334 332 329 332 337 335 334 338 330 328 332 338 342 346 344 345 347 349 346 343 343
318 318 319 319 319 319 319 319 318 319 319 319 319 319 319 319 319 320 321 321 322 323 325 327 327 327 326 326 319 318 307 307 317 317 352 362 360 357 359 362 362 334 333 331 328 325 323 319 320 316 317 317 318 320 325 325 328 322 317 326 331 334 332 335 334 336 335 334 331 333 338 334 334 328 337 332 340 343 339 344 347 347 349 350 344 344 343 342
318 318 318 318 318 318 319 318 318 319 319 319 318 318 319 319 319 320 321 321 322 324 326 328 328 327 325 319 320 314 312 313 315 328 359 359 355 359 357 340 333 329 324 325 324 322 322 318 317 321 316 313 316 320 325 324 325 321 321 328 332 334 333 335 335 335 335 334 335 336 332 332 334 333 336 334 339 340 339 345 346 347 348 346 343 343 343 342
318 318 318 318 318 318 318 318 318 319 318 318 318 318 318 318 319 320 321 321 323 324 326 329 327 326 325 321 316 309 309 321 320 335 352 343 347 343 328 323 328 322 321 322 323 323 321 317 319 321 313 315 319 317 322 320 314 323 322 326 332 331 333 333 334 334 334 336 336 332 331 334 336 339 333 336 339 340 342 345 345 345 345 343 341 343 343 342
318 318 318 317 317 318 318 318 318 318 318 318 317 318 317 318 319 320 321 322 323 325 327 329 327 325 320 320 317 303 314 324 326 344 339 339 340 332 324 324 324 321 320 320 320 320 319 319 322 323 320 317 319 316 316 317 314 325 324 327 329 331 331 333 332 332 335 335 334 330 329 332 338 334 324 337 340 342 343 343 344 343 342 342 341 343 343 341
318 318 317 317 317 317 317 318 318 317 318 317 317 317 317 318 319 320 321 322 324 325 328 328 327 325 319 322 312 304 321 323 327 334 332 334 329 321 318 321 324 319 321 320 320 321 321 321 323 323 319 315 317 315 315 315 321 324 326 324 328 331 331 332 332 331 333 332 334 332 330 334 336 332 326 335 341 344 341 341 341 341 341 340 341 342 343 342
317 317 317 317 316 317 317 318 317 318 318 317 317 317 318 318 319 320 321 322 324 325 328 329 327 322 320 318 312 312 328 325 328 328 331 331 323 323 320 322 323 322 321 319 321 322 322 322 322 318 310 319 311 315 314 318 317 320 322 319 324 328 326 330 329 331 332 330 335 335 328 327 331 327 331 337 341 342 341 340 340 340 340 339 340 341 341 341
317 317 317 316 316 316 317 317 318 317 317 316 317 317 317 318 319 320 321 323 324 326 328 329 325 322 321 305 313 323 323 324 328 328 329 331 329 328 325 323 324 323 324 321 320 322 322 321 321 315 318 317 314 309 317 319 317 322 319 317 319 319 319 327 331 332 331 332 335 331 311 315 326 332 332 337 338 340 339 337 338 339 339 339 339 340 340 342
317 317 316 316 316 316 316 317 317 317 317 316 317 317 317 318 319 320 322 323 325 327 330 330 325 322 320 312 323 328 325 324 325 328 326 330 324 323 324 322 322 323 324 322 322 323 322 322 321 318 320 316 312 320 316 315 317 310 317 315 308 309 308 325 329 329 327 334 335 327 308 311 320 329 333 336 336 337 335 337 337 337 338 338 339 339 339 342
317 316 316 316 316 316 316 316 316 316 316 316 315 316 316 317 319 321 323 325 326 329 330 330 323 320 315 318 327 330 356 348 318 323 327 322 319 322 320 319 317 319 321 323 323 324 324 321 319 315 312 319 318 313 309 309 312 317 307 303 309 307 307 321 329 328 322 332 337 328 310 312 318 324 332 335 336 336 334 336 337 337 338 338 338 339 339 341
317 316 316 316 316 316 316 315 315 315 315 315 315 315 316 317 319 321 324 325 327 327 328 323 323 322 313 308 316 341 323 315 313 316 315 316 313 319 323 318 318 318 319 322 326 326 323 322 316 313 314 315 312 307 306 305 307 313 305 306 305 306 307 316 325 329 328 329 335 328 311 317 317 325 331 334 334 335 334 334 336 337 338 337 338 339 339 341
316 316 315 315 315 315 315 315 315 315 315 315 315 315 316 318 320 324 326 328 326 327 325 320 322 322 307 319 329 318 316 316 319 318 316 315 314 317 323 318 317 317 320 322 323 323 320 318 316 314 315 310 309 307 302 301 302 304 309 304 306 305 309 309 320 327 327 330 324 330 317 317 319 326 330 332 333 333 332 332 336 337 338 338 339 339 339 341
316 316 315 314 314 315 315 315 315 315 315 314 314 315 314 320 324 325 326 328 325 323 324 326 321 315 311 322 313 314 319 319 318 315 314 313 314 320 322 318 320 318 320 320 321 317 317 311 317 305 306 308 308 303 300 297 303 302 304 304 304 308 313 312 315 323 327 329 325 325 320 318 321 325 328 330 332 331 330 331 334 336 336 337 338 339 340 341
316 315 315 314 314 315 315 315 315 314 314 314 315 317 321 321 323 319 317 322 318 315 310 315 310 301 299 311 320 321 320 320 320 314 313 314 316 321 324 324 321 317 314 313 310 315 313 310 309 304 302 303 304 305 303 306 308 307 308 306 305 301 308 309 317 326 326 323 321 323 319 318 320 322 324 329 330 329 329 330 333 334 335 336 338 339 340 341
315 315 314 313 314 314 315 314 314 314 314 310 308 311 318 308 314 319 321 318 315 316 317 319 316 314 314 315 315 318 320 319 314 314 318 318 320 317 318 320 318 317 310 307 308 310 312 304 301 302 304 305 308 309 309 310 310 310 310 308 306 304 305 314 317 326 326 321 318 322 320 319 320 321 322 327 328 328 328 328 330 331 332 335 336 338 339 340
315 314 313 313 313 314 314 313 313 313 313 309 307 311 307 307 301 300 306 308 316 319 317 317 320 317 314 317 320 320 313 314 315 317 318 322 320 316 313 315 311 307 306 309 307 310 310 302 302 306 308 309 309 310 310 310 310 310 308 305 304 304 303 309 315 325 325 318 314 319 319 319 320 321 322 324 326 325 327 328 329 330 332 332 333 335 337 340
315 314 313 313 313 314 314 313 312 312 312 307 310 308 308 310 313 313 309 302 308 316 318 318 319 317 322 321 323 324 319 311 309 310 316 320 317 312 311 310 306 304 306 307 307 303 302 301 305 308 310 310 310 310 310 309 308 308 305 303 302 303 306 310 316 324 323 317 313 319 318 318 320 322 323 324 326 327 329 330 330 330 330 331 331 332 334 336
315 314 313 313 313 313 313 312 311 310 307 310 309 311 313 316 319 316 314 306 305 311 312 313 312 315 317 322 324 323 314 309 305 308 313 318 312 311 310 306 305 304 305 306 302 300 298 302 306 309 308 307 308 308 308 307 306 304 302 301 300 303 303 299 306 322 322 316 313 319 317 317 322 323 323 324 327 327 330 331 331 332 331 331 331 332 334 334
314 314 314 314 314 312 311 311 310 310 308 308 308 310 315 317 316 315 310 303 302 308 310 311 311 312 315 316 320 316 311 312 310 308 317 315 309 310 310 307 305 303 301 304 304 301 301 305 310 308 308 307 305 306 306 303 302 304 307 304 302 304 304 304 303 308 316 319 320 316 312 312 318 318 319 323 327 329 329 332 331 331 332 333 334 336 335 335
314 313 314 313 312 312 310 309 309 308 310 310 310 315 316 317 318 315 309 304 305 306 314 313 314 316 317 327 320 313 313 315 312 313 316 315 310 308 306 310 305 301 302 304 304 302 302 307 310 307 307 308 306 304 306 307 301 301 305 306 306 306 305 304 305 302 301 309 315 316 302 304 310 318 319 320 323 324 327 328 327 329 330 332 332 334 335 336
313 313 313 313 312 310 310 310 308 307 308 307 308 314 318 317 315 316 308 299 294 303 311 305 315 309 322 312 316 315 313 308 313 315 317 315 318 311 309 304 305 300 303 302 302 301 303 308 308 306 305 304 305 304 306 306 300 300 301 308 307 306 305 304 303 299 296 300 311 315 298 296 309 314 316 318 321 321 326 327 327 329 330 330 333 333 333 335
313 313 313 313 311 310 303 303 307 310 305 309 312 316 319 320 316 313 308 299 294 306 302 309 310 308 317 312 313 309 297 299 312 316 315 320 313 316 304 300 305 306 307 307 305 298 307 306 305 305 305 303 303 302 306 308 301 298 304 307 306 305 304 304 303 302 298 304 307 314 303 298 301 309 315 318 319 320 323 325 326 329 329 331 334 335 334 336
312 312 312 312 310 309 303 304 305 307 309 310 315 317 318 320 315 313 305 296 296 308 304 304 310 316 314 312 311 306 304 310 305 310 316 316 314 311 308 302 301 301 304 304 294 301 304 303 304 304 304 301 302 305 307 309 303 302 306 308 307 307 305 304 302 299 300 300 294 301 311 298 298 305 318 319 316 317 319 322 325 327 331 333 333 334 336 337
312 311 311 310 309 309 308 305 306 306 314 315 316 317 319 319 310 303 299 292 306 306 316 305 317 312 312 313 309 308 308 310 306 310 315 315 315 310 303 305 306 305 306 304 297 300 305 305 304 305 303 301 306 306 307 308 304 305 308 309 308 308 306 304 301 300 299 297 294 297 305 297 298 304 313 316 316 314 316 321 324 327 330 332 333 334 336 338
310 310 310 309 308 307 307 306 305 311 314 315 315 317 319 311 304 299 296 294 308 299 309 310 308 304 309 305 305 309 306 307 311 313 313 309 311 313 312 313 309 307 304 305 303 304 305 315 314 310 301 304 305 306 307 308 308 309 307 303 303 302 301 302 301 301 298 293 294 301 305 302 295 302 310 311 312 316 318 322 325 328 331 332 334 335 336 337
309 309 308 309 302 306 307 303 308 313 314 315 317 317 311 305 300 295 292 299 309 304 310 307 306 309 304 302 298 306 306 306 311 311 306 312 306 310 309 304 309 302 298 297 299 302 305 307 307 306 311 310 307 305 307 309 308 307 303 300 297 299 300 298 298 297 292 289 296 304 306 308 298 301 307 313 317 320 321 320 325 328 330 331 333 335 337 338
308 308 308 307 307 309 304 304 311 314 313 314 316 309 303 297 298 293 298 310 297 300 301 301 306 304 303 304 302 301 301 307 309 308 304 301 301 301 301 298 301 298 293 294 297 300 300 301 302 307 317 308 307 303 301 304 303 302 299 299 293 290 291 288 292 291 293 291 302 308 309 304 302 304 309 314 318 321 321 324 328 329 331 332 333 335 336 337
307 307 308 308 309 305 306 311 312 312 313 316 312 304 299 297 292 295 297 303 298 303 301 306 304 304 303 301 299 302 305 302 308 307 306 304 301 302 303 304 302 298 293 296 296 295 295 300 304 305 307 311 304 300 294 299 298 302 299 295 291 289 288 287 288 292 289 295 302 305 310 301 305 310 315 316 319 321 321 327 332 331 332 333 334 335 336 337
306 307 305 309 309 309 312 313 312 313 315 318 305 301 299 295 296 317 305 302 300 307 306 304 304 304 301 296 299 303 300 306 305 303 305 302 299 299 301 303 304 303 299 297 295 293 290 291 298 303 300 306 305 303 300 298 299 297 300 299 296 290 292 289 290 288 290 291 297 302 301 300 302 305 316 317 321 326 326 331 332 333 334 335 336 337 338 338
306 306 307 309 310 311 312 314 315 317 316 310 301 297 295 293 299 299 300 301 304 306 303 305 302 301 299 299 301 305 303 301 305 303 301 299 296 297 298 299 304 304 300 295 297 298 296 295 300 305 304 305 305 306 305 302 300 299 301 299 295 296 295 290 289 289 291 292 294 299 299 304 306 314 322 326 328 329 332 332 333 333 335 336 335 336 337 338
306 308 312 311 316 319 313 314 315 315 313 303 298 296 293 298 298 304 302 310 308 303 301 302 302 298 296 296 301 302 306 302 303 303 301 301 300 299 302 303 302 304 299 293 297 294 297 294 303 304 306 306 305 307 307 304 294 296 299 295 295 298 300 297 298 302 298 294 295 305 305 310 312 316 319 325 326 327 330 331 332 333 335 335 334 336 337 339
305 309 311 316 319 321 317 317 318 316 311 302 296 292 299 304 307 306 315 307 307 304 301 295 297 296 295 294 296 300 301 304 302 300 297 302 299 301 301 304 306 304 304 302 297 300 295 296 302 304 302 305 307 309 306 307 300 298 296 294 299 303 301 295 290 292 290 289 296 303 302 302 303 301 313 318 322 325 328 330 333 335 336 335 335 337 338 340
304 307 313 316 320 322 320 319 319 314 306 300 296 310 310 301 309 308 309 308 308 307 299 296 298 301 296 295 295 299 301 299 298 300 296 300 295 303 303 302 306 306 305 306 300 300 299 294 297 302 304 306 308 307 303 305 306 301 298 300 298 292 294 293 292 289 287 290 294 299 304 303 303 305 311 314 319 322 326 329 332 333 335 335 336 337 339 341
305 308 309 322 324 324 322 321 315 308 302 296 296 298 307 305 309 308 310 310 308 308 301 303 299 300 300 297 298 300 301 296 299 297 297 298 295 302 304 305 304 307 306 305 300 299 302 293 294 302 303 304 303 300 295 297 303 305 305 301 301 296 294 296 294 292 289 289 291 294 297 294 305 309 313 314 320 323 325 327 329 332 334 336 337 338 339 340
307 304 303 322 325 325 323 318 309 305 300 296 297 299 305 304 308 310 311 309 305 304 305 305 308 304 300 300 301 297 301 300 299 297 299 299 298 303 303 306 303 306 305 306 302 307 301 299 294 298 303 304 297 302 295 297 296 297 298 295 297 302 299 297 297 297 292 290 287 291 291 297 304 312 315 315 318 322 326 326 326 329 334 337 338 339 340 340
308 303 304 321 323 322 318 311 302 300 300 300 303 303 305 304 307 309 312 312 307 312 307 308 306 304 305 304 300 302 300 299 299 297 299 299 298 297 303 305 307 305 305 305 304 303 299 297 296 295 296 294 295 300 302 301 300 297 297 294 295 296 294 291 289 298 297 292 291 289 290 297 306 317 317 316 319 322 326 326 325 329 334 335 338 339 340 340
307 306 309 320 322 318 308 301 301 304 301 300 299 305 305 319 310 310 310 310 308 304 314 311 309 308 309 305 304 301 301 299 299 299 302 298 302 300 305 306 306 306 302 299 298 303 301 300 296 296 297 300 303 306 306 305 302 300 301 298 297 294 293 290 287 289 294 296 302 300 296 299 310 317 318 317 319 322 325 327 327 330 333 336 338 340 341 341
300 300 313 314 318 317 306 300 308 306 301 303 309 309 310 309 308 309 308 308 307 309 307 308 309 308 310 310 310 308 302 301 300 298 302 302 302 305 307 305 306 305 302 301 304 303 331 297 296 300 301 304 305 305 305 306 303 301 301 301 300 297 296 294 289 293 295 295 297 295 296 299 309 312 315 317 320 321 324 328 329 332 335 338 339 340 341 341
299 300 305 314 319 315 302 298 297 298 303 308 308 308 312 312 311 308 307 307 307 306 306 307 308 310 308 311 311 308 306 298 304 303 302 304 303 309 309 313 314 310 304 306 302 305 299 298 296 293 289 293 297 302 301 304 301 298 298 298 299 299 301 298 297 297 293 293 296 295 291 295 305 315 316 319 320 320 322 328 333 333 336 339 340 340 341 340
298 304 304 308 316 311 300 300 300 299 301 302 303 304 307 310 310 309 308 306 309 309 308 307 309 309 309 310 309 310 310 302 302 304 305 305 304 309 312 315 316 313 320 316 334 307 300 302 295 290 289 288 289 290 292 295 298 299 301 301 302 301 300 297 295 296 289 297 300 294 294 298 303 313 315 319 318 318 323 330 334 336 337 339 339 339 338 338
302 298 306 308 311 309 306 308 305 302 300 301 302 304 308 305 309 310 310 307 310 309 309 309 311 313 311 310 308 308 308 310 305 307 304 303 306 308 311 314 314 316 331 344 328 314 305 306 300 294 291 290 293 297 301 308 299 297 300 300 300 300 300 297 296 294 292 294 297 297 299 301 307 310 312 317 318 318 320 328 332 334 337 338 338 337 336 335
305 302 304 301 307 306 304 306 305 305 301 305 300 306 304 305 308 309 309 306 309 311 311 310 311 311 310 309 307 306 310 311 313 312 310 305 306 307 312 316 320 335 351 338 328 308 302 297 304 303 302 299 300 303 304 306 301 301 301 301 302 300 301 299 295 294 296 295 288 298 306 301 305 311 313 316 317 318 321 327 331 333 334 335 336 335 337 333
300 307 309 311 302 296 302 303 307 306 308 309 304 308 305 305 306 306 307 307 307 309 307 308 313 314 313 310 308 304 309 309 310 308 312 312 308 311 305 309 309 330 318 309 317 306 301 299 303 304 303 304 304 304 304 303 303 303 302 301 301 302 300 301 300 301 300 296 291 298 304 300 304 311 314 316 318 319 322 326 330 332 333 334 334 333 331 332
304 306 309 312 304 306 308 308 309 308 305 306 308 316 308 307 306 310 310 306 306 305 309 305 310 313 315 316 313 308 310 304 306 312 311 310 310 310 308 309 311 310 306 307 308 311 301 301 303 306 306 304 305 306 305 304 303 303 303 301 302 304 301 301 301 306 302 300 299 301 305 302 308 312 315 317 320 322 324 329 331 331 332 333 333 331 331 333
302 303 303 309 308 306 308 308 308 306 302 309 305 309 310 308 306 309 311 309 305 303 312 312 312 315 316 315 313 310 311 313 313 309 313 313 309 310 312 310 309 310 312 309 310 309 302 302 321 305 300 302 306 308 306 305 304 302 306 307 308 311 312 311 311 311 309 302 299 299 301 305 305 311 315 319 323 326 329 329 330 331 331 332 331 331 333 336
308 311 310 304 300 303 311 308 305 304 301 303 303 307 309 309 307 310 309 315 313 312 314 314 316 315 316 314 313 312 315 314 314 313 315 312 308 313 309 310 313 310 313 309 310 312 307 304 305 303 298 300 304 306 306 304 304 303 304 306 308 310 308 310 309 311 307 304 305 300 298 301 308 318 321 322 324 325 325 327 328 329 331 331 330 333 335 335
308 312 312 307 299 312 304 306 305 303 298 305 309 307 306 307 308 310 305 314 320 318 320 320 317 314 314 312 311 313 316 316 316 316 316 314 315 314 314 314 314 311 312 313 313 307 309 304 301 300 296 298 304 305 305 302 301 298 300 304 307 312 312 313 313 315 313 312 310 306 307 312 310 322 320 320 323 322 324 326 327 328 329 330 331 334 335 336
Wind_Speed
20 20 19 19 19 20 20 19 19 19 19 20 21 20 18 19 18 18 19 18 18 18 17 16 15 15 14 13 12 11 9 4 5 1 3 11 7 8 7 9 8 15 10 4 2 0 4 7 8 7 5 5 4 6 7 8 4 2 1 1 0 1 0 2 5 5 4 7 6 9 6 5 6 2 3 0 6 3 3 4 2 2 2 1 3 4 2 6
19 19 19 19 20 21 21 21 20 21 21 20 20 19 20 20 18 18 18 18 17 18 18 16 15 14 14 12 10 10 7 2 3 4 14 8 12 9 7 5 9 11 9 2 5 6 4 4 6 7 6 4 5 4 9 4 7 3 1 2 1 1 2 2 3 7 8 4 7 6 6 4 4 7 4 3 2 2 3 2 1 3 2 0 2 2 1 7
19 19 19 20 21 21 22 21 21 20 20 20 20 20 21 20 20 19 18 18 19 18 17 17 15 14 12 11 10 8 5 2 2 6 12 15 16 12 13 7 8 11 8 3 3 4 5 3 3 4 4 7 3 6 4 1 5 3 3 2 2 1 2 3 9 10 2 10 8 8 7 3 7 2 2 4 6 1 4 5 1 6 9 7 4 2 1 7
19 18 19 21 20 21 21 21 21 21 21 22 21 20 19 20 21 21 19 18 18 18 17 16 15 13 11 10 8 4 1 1 1 2 4 4 14 17 11 10 10 10 4 3 2 2 3 7 7 5 2 6 5 4 3 3 2 2 3 3 3 6 6 5 8 8 7 9 10 7 5 6 6 3 3 7 6 2 3 6 9 12 12 11 6 4 3 7
18 19 19 19 19 20 21 21 21 22 23 22 20 20 19 20 20 20 19 19 18 17 17 15 15 12 9 7 7 2 0 1 1 2 3 5 8 16 15 10 10 5 5 3 4 3 5 6 4 3 0 5 1 2 3 5 4 5 3 3 7 6 3 10 8 10 10 7 8 5 8 6 4 3 4 9 8 7 8 8 5 9 11 11 7 5 4 6
19 19 19 19 20 20 20 21 21 22 21 20 20 20 20 20 20 20 19 19 17 17 16 14 14 11 8 6 2 2 0 2 2 2 3 3 6 14 16 11 8 4 2 1 1 3 5 3 2 2 2 1 4 4 3 5 4 3 1 6 7 7 10 8 10 11 10 8 9 8 6 6 6 3 5 8 5 4 4 7 7 8 9 5 3 4 5 6
20 20 20 21 20 20 20 21 22 22 22 21 21 22 22 20 20 20 19 19 17 16 15 14 13 9 8 6 1 1 1 5 3 6 6 5 7 11 11 8 6 3 2 0 2 2 1 3 1 5 4 7 4 6 6 6 3 7 3 8 9 9 11 12 11 11 8 11 10 7 5 8 7 6 5 6 6 4 8 8 8 9 5 4 5 5 7 6
19 21 22 20 21 21 20 22 21 21 21 21 22 23 21 22 21 19 19 18 16 15 14 13 10 8 6 1 1 1 1 6 10 3 7 9 8 10 10 4 5 4 4 5 4 3 1 3 7 2 4 2 2 4 7 2 3 8 3 10 9 7 9 12 11 11 9 8 6 6 9 9 11 6 7 9 7 6 8 8 9 9 6 4 6 5 5 5
20 20 21 21 22 22 22 22 22 22 21 22 21 22 21 22 21 19 18 17 15 14 13 11 8 6 2 0 1 2 4 7 6 8 8 8 6 6 8 3 3 5 3 2 6 5 1 5 4 2 4 7 0 6 7 4 3 3 8 8 10 8 10 9 12 12 11 5 6 8 9 7 11 5 8 9 6 9 11 9 10 10 9 8 8 7 6 6
19 21 21 23 22 23 23 23 22 22 21 21 21 21 23 22 21 19 18 16 15 13 12 9 6 4 2 0 1 1 3 5 6 9 7 9 7 6 4 1 7 5 3 5 4 4 6 7 2 6 7 4 4 7 3 4 4 10 7 10 13 12 11 10 13 12 9 6 9 11 7 7 6 6 3 5 9 10 12 12 11 11 10 9 9 7 6 7
20 21 21 22 24 23 23 23 23 23 22 22 23 22 21 22 21 20 17 16 14 12 9 8 6 4 1 1 1 4 6 6 4 8 9 9 9 7 7 5 7 6 4 3 8 8 4 5 8 6 5 1 7 8 4 2 3 6 9 6 8 12 10 12 9 10 6 2 10 9 8 2 4 3 5 8 11 13 13 12 13 11 10 8 9 7 6 6
20 21 21 22 23 23 23 24 23 23 23 23 23 23 23 22 22 20 18 15 13 10 8 7 4 1 1 2 3 8 2 4 3 6 8 11 7 10 9 7 7 7 7 5 6 3 6 9 4 3 3 3 3 4 3 3 6 3 12 5 8 10 7 10 12 9 8 4 9 4 5 1 4 7 6 10 12 13 13 12 12 12 10 8 9 8 6 8
20 21 22 22 22 23 23 24 23 24 24 23 23 24 23 23 22 20 17 14 8 9 9 3 2 2 0 2 9 9 8 1 3 3 3 5 0 2 5 7 8 6 8 5 3 3 5 5 3 6 4 2 4 1 6 7 7 0 2 8 4 4 4 10 7 8 8 4 11 6 2 7 10 12 4 12 12 11 12 11 11 10 10 9 9 8 7 6
22 21 21 22 21 23 23 24 24 24 24 23 23 24 25 24 22 20 16 12 11 9 6 1 0 1 0 5 6 4 7 5 7 6 8 6 4 3 2 4 7 8 5 5 8 9 10 7 3 5 4 2 4 2 8 6 3 4 3 4 6 6 5 12 9 9 7 4 13 3 1 6 9 11 7 11 13 14 13 12 12 11 10 9 9 8 8 7
22 22 22 21 23 23 24 24 24 24 24 22 24 25 25 25 22 19 14 9 8 5 3 3 1 1 1 7 6 12 15 4 9 12 10 9 6 1 4 4 4 8 9 8 4 4 4 5 6 4 5 2 3 5 6 3 2 2 2 2 2 6 4 10 9 14 10 1 8 4 0 7 7 8 11 13 12 13 12 11 12 11 10 9 9 9 8 8
23 22 22 22 23 24 23 23 22 22 23 24 24 26 25 22 19 16 12 9 9 7 3 0 1 0 0 7 4 8 5 1 5 9 7 8 5 3 8 9 5 6 5 4 7 6 5 3 3 3 4 3 3 2 4 5 3 2 4 2 2 3 4 3 8 11 6 8 2 8 4 1 4 5 9 11 13 12 11 11 11 11 11 9 10 9 7 6
22 22 22 22 23 24 24 22 22 23 24 24 26 26 21 17 15 12 11 8 3 2 3 1 1 2 1 4 4 4 2 6 2 1 2 5 5 5 5 3 3 5 5 7 5 3 5 2 2 2 1 4 1 1 4 6 5 3 1 4 3 4 2 3 2 8 4 10 5 8 2 6 4 6 9 9 10 11 10 10 10 10 9 9 8 10 9 8
21 22 22 22 23 24 24 23 23 24 24 26 24 24 21 19 13 8 4 2 2 3 3 2 2 2 7 3 1 2 2 2 3 5 6 4 8 4 6 4 3 4 3 2 1 2 1 1 0 5 4 2 1 2 2 7 5 3 2 2 4 1 9 8 7 10 11 9 12 9 5 5 4 5 9 11 10 11 11 11 11 10 9 9 8 9 9 8
22 22 23 23 23 24 24 24 24 23 24 27 24 22 14 6 1 2 1 2 1 1 1 1 2 2 4 2 6 8 3 8 3 7 3 3 3 3 3 3 3 4 1 2 3 3 1 1 4 4 7 6 4 3 7 10 6 9 7 4 2 4 5 4 7 10 17 11 7 10 9 5 4 6 7 9 11 11 10 7 7 6 7 8 8 8 8 8
22 22 23 23 23 25 25 24 22 22 22 19 12 7 1 4 1 1 1 1 3 6 4 4 7 4 11 10 6 5 4 5 5 3 4 4 4 5 3 4 1 2 3 4 1 3 3 2 4 8 10 6 6 7 9 11 10 13 8 4 6 3 3 11 5 12 13 6 6 12 4 4 9 10 9 11 8 6 7 7 7 6 7 8 8 9 8 8
22 23 23 24 24 25 24 24 23 21 19 8 7 2 3 1 3 4 8 7 7 6 9 10 10 8 10 6 8 7 4 1 2 1 4 2 2 5 2 4 2 3 4 6 5 2 2 3 9 12 10 10 13 11 8 12 12 14 6 3 8 5 4 4 7 14 12 10 3 5 5 7 10 8 6 5 7 9 9 8 7 7 7 7 8 8 5 5
22 22 24 24 25 25 24 24 25 22 13 1 1 3 2 3 1 4 0 6 5 10 11 13 6 8 10 11 14 9 8 0 1 2 3 5 1 4 2 3 3 6 5 0 1 2 2 8 14 13 12 11 10 9 6 11 9 4 1 2 4 7 3 9 9 14 13 6 3 9 10 8 9 7 5 8 12 9 9 11 11 10 8 7 5 5 7 10
22 23 24 25 25 26 25 24 24 19 0 2 4 4 4 5 6 6 0 3 9 4 6 7 5 9 11 7 6 5 10 2 3 3 3 4 3 5 5 3 5 4 3 3 6 3 4 8 16 12 6 5 8 5 9 4 2 3 6 3 5 4 2 5 4 12 12 4 6 11 7 2 2 2 4 3 5 3 6 7 7 9 10 9 10 6 10 10
22 23 24 24 26 27 27 26 23 3 3 7 5 5 8 9 7 6 3 2 4 7 7 7 7 3 7 4 3 6 4 2 3 5 3 5 6 4 3 5 6 3 6 6 8 8 9 9 3 6 10 5 7 5 5 4 4 2 2 3 3 4 3 2 1 4 2 5 9 10 6 1 1 3 4 4 1 2 4 2 1 3 4 4 6 9 11 11
22 23 23 25 24 28 29 24 3 5 9 8 4 5 6 10 2 5 2 3 2 6 4 3 4 4 6 3 3 3 2 0 4 2 4 8 4 4 4 2 3 6 6 7 6 4 9 12 11 9 8 8 7 6 7 1 3 6 4 6 5 4 1 3 2 9 3 2 2 13 2 3 4 6 7 4 1 3 3 6 6 6 3 5 8 8 7 7
21 22 22 21 24 25 29 3 3 7 9 5 2 7 10 6 5 3 3 2 4 3 2 1 4 4 4 3 4 2 3 3 5 4 5 6 7 5 2 3 3 8 9 4 6 3 7 9 2 7 7 6 9 9 6 2 1 1 3 0 3 2 3 3 4 7 4 5 7 5 3 1 0 7 5 4 3 5 1 5 5 4 4 5 9 8 8 10
21 21 20 21 20 21 12 2 4 10 3 2 3 10 11 11 6 3 2 1 3 1 3 1 2 1 1 3 5 4 1 5 1 3 5 3 7 2 2 6 1 1 3 1 1 4 4 9 7 6 9 3 0 1 2 2 3 1 4 5 4 5 5 4 4 1 3 2 2 6 4 6 2 6 3 3 5 5 3 4 3 2 4 7 8 9 9 10
21 20 20 19 16 10 5 6 10 5 7 6 8 10 11 9 7 3 1 1 1 3 1 2 2 1 1 4 8 5 4 0 3 3 8 6 4 3 3 2 3 2 2 0 7 8 4 6 7 7 4 2 1 2 2 2 2 3 4 3 3 1 2 4 3 4 1 2 5 2 4 5 1 4 0 7 4 3 4 6 4 3 4 8 9 9 10 11
22 22 19 17 16 20 4 5 2 6 5 5 9 10 8 9 1 2 1 2 0 0 2 4 4 2 1 1 2 4 3 2 0 4 4 2 1 3 3 5 3 4 5 5 7 5 3 3 3 5 3 3 3 3 3 5 1 3 3 1 1 1 2 3 4 5 5 3 5 6 3 6 2 6 1 1 0 4 5 8 5 5 6 8 9 8 8 7
24 23 19 17 12 3 3 2 8 10 8 9 10 10 8 3 3 1 0 1 2 1 1 1 1 4 3 5 2 1 2 3 3 1 2 3 1 2 1 2 2 1 2 1 6 8 6 5 5 1 2 2 3 1 1 1 4 0 2 2 5 5 5 5 1 0 2 1 8 5 2 7 2 4 5 5 5 7 4 1 1 3 4 4 5 7 8 8
25 24 20 13 5 3 2 4 10 10 9 7 8 7 1 2 1 1 1 1 3 1 1 0 1 5 5 5 2 0 1 2 1 4 3 1 3 1 2 3 1 1 1 3 4 6 3 2 2 2 3 1 2 3 3 1 1 3 1 0 4 7 8 3 5 3 3 3 7 3 8 6 6 2 3 8 5 5 11 8 8 7 8 7 6 5 5 6
26 25 23 11 6 3 5 4 0 2 4 6 6 4 2 1 3 1 2 2 0 2 2 3 2 3 7 3 2 2 3 0 3 4 6 3 2 3 2 3 2 0 3 1 3 4 2 2 3 3 6 6 0 3 6 6 4 5 3 8 5 3 5 3 6 1 1 2 1 8 12 8 4 2 7 7 3 3 6 9 12 11 8 7 6 5 4 4
27 26 26 11 7 6 9 12 7 7 8 8 2 2 3 2 1 3 4 1 1 4 2 3 5 4 5 3 2 4 4 2 3 1 5 0 3 3 3 5 5 4 2 1 1 1 5 4 3 5 2 0 5 3 2 2 2 0 1 3 3 1 1 0 4 1 3 6 1 4 8 5 2 1 2 4 4 3 4 8 11 12 12 9 8 5 5 2
28 25 12 4 7 10 5 3 4 4 5 4 2 2 2 1 3 6 4 5 3 2 6 3 4 4 4 5 4 3 2 2 4 3 6 1 3 2 4 5 4 1 1 1 1 0 3 3 5 1 2 3 4 6 9 4 1 3 3 4 5 5 1 2 1 1 2 4 2 4 4 4 4 5 2 3 1 4 6 8 7 7 7 7 6 4 4 3
30 19 11 5 6 9 12 8 5 2 3 2 6 3 2 3 2 2 3 2 2 1 5 5 6 5 3 3 2 2 4 1 3 4 3 5 4 3 4 4 5 4 2 1 2 1 5 6 9 8 6 6 7 4 5 3 2 2 3 6 4 5 5 3 5 4 2 1 4 4 1 4 3 2 3 3 3 6 9 10 10 8 7 7 6 6 6 5
18 10 6 3 3 4 8 7 5 2 1 3 3 0 4 3 1 1 2 6 1 1 5 4 3 3 3 4 3 4 4 2 4 2 2 7 6 5 5 4 4 7 5 5 2 1 3 4 3 4 4 10 7 5 3 6 2 2 3 2 6 5 4 0 3 0 4 8 3 0 4 2 2 7 3 2 6 5 8 9 9 8 8 7 6 5 5 5
11 10 5 3 3 4 7 8 6 4 1 4 3 2 3 3 6 4 3 8 2 3 1 7 3 5 4 5 3 4 4 1 3 4 4 3 1 4 4 7 8 5 9 9 3 3 2 8 4 2 3 3 6 10 6 6 7 3 0 6 4 1 3 5 4 2 3 5 1 1 10 4 4 1 3 1 1 6 7 8 8 7 7 7 6 5 6 6
10 6 6 6 5 6 8 7 7 1 2 3 1 4 2 3 2 3 6 9 2 2 3 2 0 4 3 3 5 4 3 4 4 3 3 4 3 6 7 3 6 9 9 8 5 2 4 4 3 1 6 2 1 4 2 3 2 7 5 2 2 2 1 4 4 1 1 3 4 2 5 3 2 5 4 7 8 8 7 7 9 8 7 6 6 6 5 5
4 3 5 2 3 9 6 8 3 3 2 3 1 2 4 4 5 7 9 8 3 0 1 0 2 3 2 2 4 3 7 6 6 5 3 2 1 5 11 5 3 11 6 9 4 2 1 2 5 3 7 2 2 4 2 5 3 2 2 4 1 4 2 1 2 2 5 2 4 3 1 4 5 7 12 12 11 11 10 10 10 11 10 8 7 7 7 7
5 3 3 1 8 6 7 5 2 2 2 1 2 4 2 7 8 11 10 4 2 1 0 0 0 0 4 9 5 4 5 6 8 4 2 3 5 2 5 8 3 2 9 13 5 2 2 2 1 3 4 5 3 1 5 8 5 1 1 4 2 1 3 2 1 1 3 4 5 6 1 3 6 5 11 13 12 12 15 13 9 9 10 9 9 9 8 8
3 1 4 1 5 5 6 3 2 1 0 3 3 5 6 4 5 8 15 11 3 2 2 0 1 1 3 2 4 3 4 3 4 4 4 4 4 1 3 3 7 4 5 8 5 1 1 1 0 3 4 1 5 6 7 7 7 6 8 6 6 3 1 1 6 2 1 2 2 5 3 4 6 5 12 11 11 12 12 14 11 10 11 10 9 8 8 7
4 2 1 2 1 5 5 2 1 1 0 3 3 1 4 6 5 10 7 5 6 3 0 0 2 2 1 1 1 2 3 4 4 4 3 5 5 3 2 6 7 5 3 2 3 3 5 2 2 1 1 3 6 7 8 6 5 4 9 7 1 2 4 2 1 3 2 1 4 4 7 6 9 9 10 7 10 12 12 12 12 11 12 11 10 9 6 5
3 5 6 8 6 0 2 1 2 0 2 4 5 9 10 7 5 6 3 4 5 4 3 2 2 3 2 1 2 1 4 2 4 3 1 1 2 2 0 8 8 6 4 3 1 2 6 2 1 3 7 6 6 4 3 2 3 2 1 0 2 2 2 5 3 3 1 1 5 3 1 5 7 5 4 5 11 9 10 14 14 11 10 10 10 9 8 6
3 4 8 4 5 4 1 1 3 3 4 5 5 9 9 7 8 7 2 3 2 3 3 3 5 2 3 3 1 3 2 2 1 6 2 0 3 1 10 10 8 2 2 1 2 2 1 2 3 2 2 5 9 11 9 8 3 0 1 2 2 2 2 2 3 1 1 2 7 8 5 4 7 0 3 5 6 8 11 9 13 13 9 9 10 9 9 8
5 4 6 7 2 1 3 4 1 3 4 7 8 10 9 4 5 7 2 4 2 0 3 4 3 6 3 2 4 3 1 2 1 6 2 1 3 1 8 11 10 5 2 5 6 2 6 1 2 1 2 3 2 3 4 5 5 4 2 1 2 6 4 1 2 3 1 1 4 4 3 6 7 2 3 4 5 4 5 10 6 9 12 12 10 10 10 9
4 3 4 2 1 1 3 3 3 4 6 4 7 6 3 3 5 4 2 3 1 2 1 3 5 6 7 10 5 4 7 9 5 2 2 0 1 2 2 9 7 2 5 11 5 4 2 1 3 3 3 5 4 4 6 2 2 3 8 5 5 5 5 5 4 1 0 1 2 3 6 5 2 5 5 7 8 9 10 9 11 9 9 10 11 11 9 8
2 1 3 5 6 2 3 4 1 2 4 4 4 2 6 6 5 6 5 0 2 0 2 3 4 9 9 10 4 2 6 8 7 8 5 3 4 2 3 9 5 5 6 5 4 4 3 4 2 4 1 4 5 5 5 2 1 3 3 7 7 5 5 3 5 3 5 3 4 2 3 8 10 12 10 10 6 6 9 11 10 10 11 12 10 8 8 9
1 2 2 1 1 3 6 5 6 9 10 5 5 3 4 5 4 5 6 2 4 3 3 3 7 8 11 7 4 5 5 5 5 3 5 7 2 7 4 7 4 4 6 2 3 4 3 1 1 3 6 3 2 3 3 3 2 2 4 6 5 8 6 2 2 2 4 3 8 5 7 8 11 13 15 14 13 13 15 16 14 13 12 11 11 11 11 11
1 3 2 7 3 2 2 10 12 9 12 6 3 2 2 2 4 2 0 5 5 2 3 1 5 9 11 12 10 6 9 3 5 3 3 3 4 3 6 6 5 8 4 1 2 1 3 0 1 1 2 5 6 8 7 6 5 8 9 5 7 13 9 7 5 8 1 6 9 8 7 7 14 15 15 14 10 9 6 8 10 10 12 13 13 12 9 8
4 3 4 5 3 6 6 5 5 7 7 6 3 4 2 3 5 7 5 4 5 5 1 3 4 8 10 11 10 8 5 2 0 4 4 2 6 6 1 2 3 5 4 3 1 4 4 2 2 2 4 5 8 12 10 8 9 9 15 18 12 11 12 9 12 13 10 3 2 4 5 2 4 3 4 6 9 9 11 12 12 11 10 10 11 10 9 9
2 2 2 4 7 5 4 3 6 7 5 6 5 8 9 9 6 4 4 1 4 4 4 0 3 7 8 12 11 9 7 6 5 5 2 4 4 3 2 3 1 1 5 3 3 3 5 1 4 3 5 5 6 10 9 4 8 9 12 13 11 15 13 12 10 5 5 4 11 7 9 5 4 8 8 9 10 13 13 12 10 8 8 9 11 11 12 13
3 2 2 1 2 3 5 5 6 4 2 3 8 8 3 9 12 14 5 3 1 3 2 0 3 9 6 11 10 7 6 7 7 5 1 1 1 0 1 0 2 3 1 1 0 2 1 2 3 3 3 2 6 6 6 4 8 9 8 5 4 9 12 14 14 19 11 1 11 5 2 5 4 5 13 6 9 7 8 8 8 6 7 11 14 14 14 14
Wind_Direction
355 352 349 349 347 346 345 344 344 344 342 341 340 338 335 336 335 333 335 334 335 334 333 333 331 328 327 324 318 323 330 336 337 228 189 240 201 216 197 238 192 191 159 154 216 184 246 187 210 216 206 176 213 217 214 189 206 105 159 130 29 217 23 198 166 183 142 140 173 177 204 154 127 209 135 192 31 41 22 51 347 26 45 194 184 140 109 148
353 350 347 347 346 345 342 341 341 342 342 340 338 334 333 334 332 332 332 332 332 334 332 333 332 329 326 322 320 326 332 295 285 268 229 216 203 208 197 183 174 174 145 213 192 201 237 249 221 192 207 226 175 243 151 210 164 123 91 82 174 185 239 115 138 131 138 176 163 180 157 171 162 151 178 99 73 74 75 16 21 77 59 125 156 90 65 143
351 348 346 346 345 343 341 339 338 338 337 337 336 334 334 332 328 329 330 329 331 335 333 331 332 329 325 317 320 329 341 306 250 264 258 230 220 209 215 207 175 163 177 196 219 209 216 287 303 301 213 227 203 227 217 212 115 203 113 56 279 167 137 125 141 158 190 141 150 147 184 154 169 156 162 144 153 125 149 149 126 147 161 179 177 168 151 142
348 345 345 345 343 340 339 337 335 335 335 336 335 334 332 329 328 328 327 329 333 333 333 333 331 332 320 313 319 321 260 293 231 249 251 149 202 207 213 205 196 182 214 286 278 296 293 279 269 222 241 201 218 202 191 234 97 180 73 166 187 147 123 174 154 154 141 153 150 161 166 148 196 171 151 141 107 277 222 206 171 170 169 178 174 180 155 145
345 344 343 340 339 339 336 334 332 334 335 334 332 331 328 328 327 325 325 329 334 332 331 332 335 331 319 310 322 313 107 48 215 245 259 303 194 192 198 193 188 171 197 264 354 275 245 265 303 335 12 298 126 145 235 236 190 116 159 206 164 163 121 161 162 151 151 159 148 153 147 193 144 129 152 157 155 198 199 196 208 172 170 175 168 183 160 144
345 342 340 339 338 338 335 333 332 332 331 330 329 327 328 329 326 323 324 326 330 328 329 333 335 333 319 320 294 261 100 105 275 247 91 343 160 171 183 184 171 153 155 307 249 295 310 318 33 334 305 213 222 159 247 237 175 86 328 155 186 181 146 158 152 162 157 160 165 161 192 112 158 176 189 184 191 229 172 171 174 176 171 176 163 156 156 147
343 340 339 339 336 336 335 333 333 331 329 328 327 328 327 325 324 324 322 325 326 325 329 332 335 331 331 299 241 263 124 269 298 254 119 117 125 140 146 144 126 138 123 219 271 238 234 284 254 252 262 265 251 166 184 216 239 122 195 163 189 172 152 156 160 164 171 165 179 178 138 152 164 174 187 201 239 221 162 157 168 164 154 153 160 180 158 165
341 339 338 336 335 335 333 334 331 327 327 326 328 327 322 324 324 322 320 321 324 323 324 332 337 334 352 316 111 356 44 254 241 218 130 104 108 125 125 120 140 128 154 195 203 224 268 260 256 248 215 287 338 147 178 264 230 123 151 176 177 164 148 155 155 167 171 185 162 146 160 185 182 177 136 217 233 163 149 152 160 163 156 159 173 174 165 169
340 338 337 335 335 334 333 332 330 327 325 326 323 323 322 321 320 320 318 319 321 319 319 328 338 330 25 224 124 18 267 233 207 144 135 118 120 129 138 142 165 141 175 216 246 245 77 259 261 203 304 331 62 127 160 205 296 182 182 167 165 157 149 147 154 165 176 165 157 156 190 189 197 121 172 214 198 159 150 156 162 165 164 170 178 179 172 178
339 339 337 336 333 332 331 331 329 327 324 322 323 320 321 319 317 317 316 316 317 317 316 336 339 355 340 60 73 67 259 164 101 129 134 130 126 126 177 138 153 154 149 231 249 231 209 235 243 305 295 268 343 325 325 174 197 170 177 161 166 155 143 162 162 172 176 175 167 170 196 206 199 160 226 212 174 152 157 162 167 170 175 174 178 176 182 179
339 338 336 335 334 330 329 328 328 326 325 323 322 320 317 316 315 313 314 313 314 310 314 334 329 321 309 305 99 213 252 100 141 140 157 138 129 139 202 184 174 164 190 260 229 218 255 296 280 304 293 233 342 306 331 231 337 160 156 123 145 146 151 165 167 163 131 185 185 172 193 197 207 234 214 173 166 158 162 168 170 175 178 176 178 178 184 183
337 336 336 335 333 329 328 328 326 326 323 322 320 319 316 314 313 311 310 311 306 302 309 328 323 279 271 102 178 226 301 44 144 153 156 148 161 191 186 178 179 184 175 210 254 263 237 254 305 329 279 344 323 294 255 259 349 177 129 111 146 149 151 175 166 178 168 186 187 160 64 277 187 228 205 176 157 163 163 169 173 179 180 178 176 180 185 192
336 335 334 333 330 329 327 326 325 323 322 320 319 317 314 312 309 307 306 307 296 298 301 311 281 232 5 329 227 238 282 284 178 173 176 184 150 201 173 167 188 205 194 204 267 260 265 277 307 315 263 321 296 161 291 327 311 169 8 130 134 141 176 192 176 166 184 197 168 148 140 244 222 226 185 179 159 163 160 171 175 181 183 182 180 183 186 192
336 334 333 332 329 328 327 325 324 323 320 319 317 314 311 308 304 303 301 292 289 288 290 335 256 291 130 245 282 255 245 161 191 186 210 184 157 214 207 204 191 211 229 230 262 269 278 284 280 258 275 293 285 306 337 316 301 235 203 94 158 154 240 192 176 169 180 159 171 126 199 267 236 233 193 180 167 165 170 175 177 179 183 184 187 186 191 199
333 331 332 330 329 327 326 324 321 320 319 317 315 312 308 303 301 297 293 288 268 256 293 272 206 107 0 270 266 271 268 250 171 197 199 169 175 109 217 219 222 216 223 229 246 267 260 302 329 337 297 269 312 345 314 335 345 274 63 292 318 168 291 190 170 164 164 201 170 115 290 227 237 229 185 179 177 170 169 177 178 179 184 178 185 188 191 198
332 331 330 329 328 327 324 322 319 319 319 317 314 309 302 296 293 288 279 258 255 256 262 237 189 199 345 293 260 312 321 140 243 200 199 179 166 178 196 195 208 231 238 265 237 270 280 301 288 230 278 345 313 4 318 13 328 351 127 225 173 207 237 143 202 179 172 142 190 177 200 307 283 209 180 184 176 174 173 178 178 182 186 177 177 186 189 182
331 330 329 328 328 325 324 321 321 321 319 317 315 305 295 289 284 277 273 254 235 192 166 71 101 175 9 238 303 316 221 225 186 146 203 195 189 179 164 166 220 235 228 260 273 271 276 347 286 337 278 238 144 83 345 343 318 310 132 207 196 184 170 215 114 175 141 158 180 221 191 223 251 166 178 190 183 172 177 181 178 182 185 185 179 180 182 183
331 329 329 328 326 325 323 323 322 321 320 318 315 300 299 293 282 284 287 142 164 187 230 252 235 337 283 328 329 228 262 209 178 202 197 204 184 158 162 176 219 193 197 268 308 214 256 288 321 233 320 309 99 101 137 256 216 228 272 224 268 145 179 188 156 194 149 195 174 195 237 253 276 167 181 188 191 181 186 184 181 182 183 182 183 184 181 181
329 328 328 328 324 324 324 322 323 322 322 319 308 294 277 274 332 145 65 175 94 15 14 231 118 158 135 245 261 269 234 205 136 150 225 194 192 149 196 178 151 135 164 127 281 181 301 263 13 348 290 281 275 161 195 242 263 277 257 200 206 145 216 229 212 151 157 182 195 175 200 210 217 193 190 191 192 190 194 180 176 178 181 179 183 183 184 184
329 326 327 327 324 323 324 323 321 322 327 330 346 352 76 18 15 5 355 21 204 209 247 193 208 281 316 288 279 292 301 79 116 194 164 194 121 146 193 186 141 112 116 172 245 237 165 185 229 240 244 251 262 224 229 249 252 265 284 314 275 278 203 227 168 165 157 147 210 189 188 181 193 199 189 189 188 196 188 180 173 169 172 179 181 185 185 183
327 328 326 326 325 323 323 322 322 321 324 307 302 349 52 310 9 337 324 257 213 231 240 248 206 214 238 302 308 316 324 297 93 230 196 169 112 115 219 160 113 186 204 195 167 259 104 209 247 236 234 237 246 253 254 274 260 242 273 340 324 348 285 197 172 153 162 160 218 124 165 197 197 202 192 154 177 207 196 185 183 174 180 182 177 179 162 103
327 326 327 326 324 325 322 322 323 322 332 269 12 29 276 241 198 252 252 317 301 216 228 244 243 256 256 254 264 274 283 84 331 291 292 145 198 147 219 143 142 189 244 184 358 0 171 218 239 239 234 239 257 265 271 262 252 234 128 330 351 308 309 337 123 153 172 114 165 145 175 203 204 197 200 168 186 208 198 183 191 177 178 186 185 166 113 103
327 325 326 326 325 324 325 318 319 326 326 23 357 313 274 248 319 305 33 256 274 238 214 229 247 239 264 262 258 238 243 188 222 264 220 133 128 177 165 129 163 212 227 178 186 189 243 259 246 253 273 271 277 299 266 291 25 357 355 37 285 253 43 343 96 166 171 173 153 184 155 282 301 322 255 220 184 221 206 200 191 181 177 183 191 162 121 125
326 326 325 326 326 326 322 322 310 297 341 311 257 236 269 293 295 313 46 262 294 300 201 211 195 220 238 224 239 179 161 216 151 231 235 127 160 162 130 165 186 166 211 201 198 192 217 251 308 266 267 270 270 289 308 47 338 294 344 257 256 313 254 135 105 103 106 11 136 81 50 347 244 214 254 275 285 171 194 172 247 239 208 172 86 96 136 147
324 325 326 325 330 326 321 317 4 346 308 295 227 244 291 309 286 256 80 319 314 272 215 195 183 215 236 186 284 261 196 317 213 190 189 150 163 106 217 177 130 214 212 212 211 233 264 258 248 262 262 256 261 258 267 67 327 339 270 241 218 223 313 0 77 102 30 56 290 140 55 272 243 230 229 258 304 213 202 174 201 201 170 122 114 115 136 144
322 323 326 327 330 334 313 339 19 325 330 287 253 332 323 321 337 332 96 74 309 270 144 243 144 252 143 256 133 190 87 234 220 200 175 190 163 167 135 206 164 205 221 191 196 198 223 252 230 240 251 271 271 242 241 131 137 50 269 238 200 91 54 13 354 79 100 163 228 182 118 265 39 212 226 243 224 223 226 209 201 180 157 126 129 141 147 157
321 320 324 328 332 344 4 334 343 320 334 322 334 339 329 325 336 22 66 354 334 222 160 281 100 289 138 207 167 65 42 266 230 137 184 182 183 134 123 227 205 228 188 165 129 260 221 246 243 245 256 217 196 95 271 133 119 257 275 345 35 18 4 346 345 91 215 189 167 199 108 139 213 265 202 191 194 224 213 240 220 153 144 132 137 150 160 170
318 320 322 327 326 344 220 301 333 323 242 264 327 326 317 318 324 53 80 65 285 179 162 235 209 317 348 187 135 168 196 214 118 239 188 199 122 136 187 198 152 225 268 176 204 256 194 234 224 238 219 136 257 222 235 102 131 220 285 327 27 288 335 14 15 332 299 47 310 222 122 65 350 296 203 138 172 235 222 219 215 173 144 134 146 157 172 177
316 319 321 321 328 299 241 197 220 251 246 297 317 311 319 312 16 95 127 122 42 67 296 103 290 113 257 158 171 209 333 4 162 230 185 73 151 133 194 234 206 268 264 200 227 274 258 190 234 183 206 248 255 275 282 120 41 274 214 7 308 25 43 29 355 327 330 40 280 264 159 104 342 298 101 28 320 247 217 215 202 192 153 151 157 164 173 181
316 316 320 324 325 284 118 231 229 243 279 301 302 302 304 337 42 36 27 321 137 247 253 244 109 186 137 157 298 135 238 267 249 141 136 162 223 51 236 182 173 221 283 262 219 228 231 244 193 220 173 212 211 252 210 270 243 212 63 48 348 7 16 343 86 154 52 355 255 237 116 124 113 255 199 142 219 198 173 183 113 160 126 151 163 164 166 177
315 314 316 327 298 277 312 271 247 238 252 276 297 289 11 39 99 93 70 240 137 286 94 245 182 122 136 157 231 289 204 277 145 121 133 332 41 91 7 10 344 353 23 336 319 311 281 281 315 228 190 106 100 5 3 3 43 146 38 104 20 335 5 21 345 35 101 267 276 118 97 105 119 290 273 244 258 179 162 173 167 166 167 162 169 170 173 169
314 313 310 311 228 217 184 225 236 34 319 320 313 24 62 44 12 116 194 354 247 223 159 196 204 144 176 175 135 170 193 150 213 139 159 171 122 145 207 171 178 57 327 294 269 331 341 248 220 273 196 164 53 27 315 13 5 62 54 37 82 282 34 333 6 20 190 200 38 111 107 58 36 212 205 225 253 209 182 158 170 161 162 162 168 169 169 167
315 312 309 289 203 189 238 253 318 323 332 320 29 57 64 89 334 263 301 265 272 149 199 125 166 153 173 129 237 229 192 189 220 133 136 142 110 226 233 185 181 145 197 251 226 17 282 295 304 270 328 121 116 169 300 0 336 54 86 113 69 31 41 278 274 221 321 316 281 108 75 89 245 321 259 234 244 204 143 157 158 155 159 164 167 162 160 159
314 314 309 192 185 203 222 210 251 301 326 337 72 33 55 80 242 221 239 235 215 227 134 149 139 123 141 168 230 170 152 239 163 175 148 154 91 195 288 273 191 243 109 345 3 99 31 342 290 193 271 219 140 175 176 175 163 219 158 130 178 145 163 275 235 294 228 201 218 297 54 214 121 227 238 245 271 134 142 134 131 126 135 139 142 139 133 138
313 299 261 254 225 233 227 227 246 253 302 14 56 82 135 235 254 267 290 313 119 188 142 144 136 141 220 216 277 205 145 231 188 143 142 124 213 172 192 250 242 158 139 94 268 107 207 211 250 211 197 161 163 202 140 96 333 276 149 87 69 257 149 170 205 151 258 61 27 6 119 177 173 262 44 75 78 90 115 117 121 128 134 137 139 155 159 158
314 325 290 252 224 239 173 198 207 220 198 51 83 132 206 197 245 313 316 314 317 135 141 106 112 135 184 238 278 259 210 131 229 117 189 175 191 181 210 211 217 192 140 150 211 232 16 290 269 285 166 161 178 146 199 127 163 276 81 198 213 189 122 333 339 348 65 59 24 268 68 3 328 35 19 26 92 98 111 120 128 139 141 140 148 154 161 158
337 330 1 297 256 163 162 168 160 157 98 82 90 258 224 272 214 263 274 312 309 84 61 131 218 156 195 206 238 210 233 115 217 139 220 174 277 211 207 231 205 188 172 148 266 216 199 261 303 115 145 276 173 174 181 170 145 83 330 243 262 141 134 138 208 324 68 107 173 213 140 197 130 210 251 168 172 140 132 145 144 142 145 149 156 162 164 163
322 311 251 263 239 150 157 162 141 137 72 76 96 242 253 269 257 234 280 293 311 12 161 118 254 139 217 167 232 204 170 153 217 152 228 179 240 207 183 221 222 209 192 172 159 249 123 340 310 289 167 204 317 119 17 315 154 160 191 213 74 296 325 323 87 338 52 95 156 281 157 136 142 172 189 202 187 167 162 152 146 153 161 157 156 161 153 147
261 326 347 305 136 148 152 150 130 81 58 56 268 310 256 248 279 270 289 285 239 84 90 201 122 236 154 250 234 184 160 185 187 181 136 212 193 212 190 184 236 219 184 153 187 260 57 151 299 271 169 160 61 74 200 261 307 35 327 317 227 106 178 342 198 182 111 158 79 222 27 196 220 202 184 200 182 169 162 164 171 167 165 160 164 161 161 161
339 1 295 39 136 137 135 120 65 46 68 137 228 240 271 298 278 286 285 322 309 76 267 97 277 311 210 221 195 171 199 184 163 200 164 201 190 267 171 191 192 192 163 169 191 167 286 113 222 287 320 105 170 162 201 184 208 35 30 293 345 272 220 131 339 149 162 165 156 155 11 274 250 207 180 196 176 178 169 171 171 170 165 165 163 164 166 163
281 148 265 87 137 124 94 54 47 73 201 260 232 258 285 259 319 298 300 313 335 215 153 98 264 208 219 231 266 192 167 157 159 169 198 193 163 321 237 190 162 181 142 157 175 207 57 12 247 308 22 334 243 238 199 177 173 164 171 213 194 242 328 65 284 345 102 86 173 115 204 260 258 180 202 187 173 178 179 159 164 165 164 162 163 167 164 163
2 359 284 13 91 115 85 40 282 212 196 269 258 268 297 308 277 281 308 324 341 306 238 215 252 226 256 201 191 201 161 182 189 184 237 162 206 171 226 170 133 152 109 146 186 221 144 157 86 4 228 247 257 265 222 189 143 170 154 232 167 130 109 99 190 284 7 333 108 120 130 257 236 204 203 174 171 180 169 158 160 165 163 162 163 159 153 154
8 251 272 285 269 140 66 291 272 278 236 238 269 273 262 262 242 279 330 348 353 357 348 354 293 355 300 0 317 37 164 214 159 206 256 128 200 247 274 111 103 63 83 340 14 308 78 66 31 288 308 296 318 311 351 30 111 68 339 91 139 225 187 185 173 199 151 348 76 49 69 241 256 240 225 184 184 165 160 159 158 159 155 155 147 141 140 138
285 289 310 300 201 155 80 257 312 282 285 285 279 279 294 272 277 297 336 324 5 344 354 322 314 33 308 302 26 332 71 57 306 105 60 138 106 172 111 100 105 87 95 215 123 261 79 306 116 21 358 337 343 355 358 339 43 83 212 259 202 219 274 167 114 19 53 251 161 130 174 256 266 188 121 190 151 147 156 162 155 149 148 137 137 144 144 150
284 244 236 294 322 97 181 198 183 311 304 313 313 307 317 317 240 236 226 286 3 206 353 336 292 311 316 311 3 339 82 155 99 330 75 78 110 74 95 100 96 108 141 155 159 108 84 162 92 108 102 68 1 354 304 306 285 281 267 252 218 150 167 55 30 6 76 275 107 118 220 255 279 114 97 181 150 140 138 144 139 145 142 143 144 145 151 157
357 18 303 346 350 262 297 330 318 269 301 310 310 278 252 289 307 291 208 280 224 344 183 287 319 344 14 357 3 13 8 18 65 16 27 309 84 39 48 87 83 110 131 96 83 72 141 97 104 150 145 176 204 220 243 159 357 12 301 312 291 295 153 113 121 85 206 242 34 231 183 122 162 136 170 180 175 154 138 140 141 144 143 143 146 152 149 141
313 74 342 335 323 354 303 294 280 337 285 265 295 285 312 327 329 323 14 5 347 8 350 22 14 21 350 1 346 9 41 47 13 55 10 11 340 53 42 87 77 83 81 82 77 81 62 37 334 113 195 208 212 219 256 138 226 248 304 321 333 320 300 129 149 216 197 95 319 271 224 123 191 182 190 181 159 159 151 143 147 147 148 145 148 138 124 126
20 297 6 31 290 271 345 324 339 313 302 295 244 247 267 321 353 359 327 321 321 1 55 320 28 23 19 11 334 22 355 50 27 16 349 21 16 4 26 349 50 327 72 24 55 109 128 101 267 76 320 283 233 252 292 338 226 243 350 317 324 293 283 306 248 239 119 208 209 238 181 145 193 195 190 185 164 174 170 164 158 150 137 134 139 143 147 144
222 299 290 11 355 288 256 268 292 292 301 298 270 289 320 344 353 330 32 310 335 323 83 40 354 18 35 32 50 40 11 64 4 356 42 16 13 23 31 355 352 352 55 51 41 68 86 9 243 80 346 343 355 4 2 35 5 33 13 353 339 360 9 26 9 356 276 229 213 193 177 163 181 195 195 183 170 154 107 95 103 128 145 147 148 148 142 137
16 8 326 342 256 284 284 288 291 316 320 323 3 283 259 12 2 338 338 15 333 300 11 76 7 47 46 42 46 54 10 58 205 47 353 50 9 37 63 139 279 317 41 52 38 350 98 278 317 72 57 343 349 7 5 19 48 26 22 17 35 62 49 38 32 359 359 357 254 133 109 166 315 258 144 87 88 99 107 120 138 141 147 151 137 130 132 131
295 296 323 317 322 283 302 321 334 320 318 327 12 341 344 1 347 324 295 11 56 344 6 129 116 73 41 45 35 29 2 4 353 1 40 63 59 301 82 305 50 37 356 27 40 340 66 290 27 55 60 336 2 1 344 6 58 45 28 26 29 52 48 31 36 320 33 18 27 45 35 343 314 81 80 96 113 128 136 146 142 138 135 137 135 139 142 153
318 292 300 216 275 292 326 319 310 347 329 332 351 346 346 328 336 334 316 316 12 76 27 193 103 87 36 41 22 350 330 334 320 288 275 149 124 338 152 260 66 76 34 51 147 79 116 92 41 28 66 310 309 2 333 31 40 25 353 31 66 79 77 56 40 34 17 324 57 71 254 260 275 119 114 126 137 130 122 126 101 111 148 158 160 155 154 165